Location: Mary-sur-Marne
(49.0159°N, 3.0279°E)
Time: 13:53:11
(UTC+00:00)

Daily predictions for brighter satellites

Satellite Brightness Start Highest point End
(mag) Time Altitude Azimuth Time Altitude Azimuth Time Altitude Azimuth
Cosmos 2219 Rocket 2.5 20:27:00 10° NNW 20:32:39 68° WSW 20:38:17 10° SSE
SPOT 3 Rocket 4.1 20:28:23 10° SE 20:33:15 45° ENE 20:38:11 10° N
ATLAS CENTAUR R/B 4.1 20:33:41 10° W 20:36:33 22° NW 20:39:29 10° NNE
GENESIS II 4.3 20:33:03 10° SW 20:36:40 74° NW 20:40:20 10° NE
Okean-O 3.4 20:33:06 10° S 20:37:24 53° W 20:41:44 10° NNW
CENTAUR R/B 4.1 20:37:16 10° ESE 20:38:53 11° E 20:40:35 10° E
Cosmos 1862 Rocket 3.7 20:36:21 10° S 20:40:48 87° WNW 20:45:17 10° N
Cosmos 1703 Rocket 4.4 20:37:10 10° SSE 20:41:10 33° E 20:45:08 10° NNE
Cosmos 1356 Rocket 4.2 20:37:02 10° SSW 20:41:11 57° WNW 20:45:20 10° N
Okean O Rocket 3.6 20:40:25 10° SSW 20:44:05 26° W 20:47:46 10° NW
USA 245 3.9 20:41:24 10° SSE 20:45:49 80° ENE 20:51:20 10° NNW
Cosmos 2208 Rocket 4.2 20:41:12 10° NNW 20:46:21 61° ENE 20:51:27 10° SE
Cosmos 371 Rocket 4.4 20:43:49 10° SSE 20:47:44 25° E 20:51:40 10° NE
Ariane Rocket 3.1 20:45:03 10° SSE 20:50:04 66° ENE 20:55:08 10° N
Cosmos 1242 Rocket 2.5 20:47:45 10° SSE 20:50:15 35° E 20:52:45 10° NNE
CZ-4C R/B 2.4 20:46:12 10° S 20:50:17 37° ESE 20:55:17 10° NE
Cosmos 2228 Rocket 4.0 20:46:06 10° SSW 20:50:34 53° WNW 20:55:04 10° N
Meteor 1-4 Rocket 2.4 20:48:12 10° SSW 20:51:10 69° WNW 20:54:11 10° N
Terra 1.8 20:50:34 10° SSE 20:55:17 87° ENE 21:00:02 10° NNW
Iridium 51 4.4 20:56:09 10° S 21:00:20 71° E 21:04:18 10° N
MOS 1 Rocket 3.6 20:55:24 10° SSE 21:00:42 83° ENE 21:05:48 10° NNW
Cosmos 2360 Rocket 4.2 20:58:22 10° NW 21:02:40 23° WSW 21:06:57 10° SSW
Cosmos 1953 2.2 21:01:36 10° N 21:05:25 84° W 21:09:13 10° S
USA 234 3.9 21:01:35 10° ENE 21:07:15 31° SE 21:12:53 10° S
COSMOS 2428 2.9 21:01:37 10° NNW 21:07:20 76° WSW 21:12:53 11° SSE
SPOT 5 4.0 21:06:54 10° SSW 21:10:57 36° W 21:15:10 10° NNW
Cosmos 304 Rocket 4.4 21:09:54 10° SSE 21:14:12 35° ESE 21:18:33 10° NE
BREEZE-M DEB (TANK) 2.8 21:13:32 10° W 21:15:59 85° NNW 21:21:36 10° E
USA 281 4.5 21:10:42 10° ESE 21:16:20 31° NE 21:21:58 10° NNW
BlueWalker 3 2.8 21:18:29 10° W 21:22:10 52° NNW 21:25:51 10° ENE
ERS-1 Rocket 3.9 21:22:25 10° S 21:27:11 44° W 21:31:59 10° NNW
Cosmos 1315 Rocket 3.9 21:24:02 10° SSW 21:27:53 45° WNW 21:31:45 10° N
SL-4 R/B 3.3 21:26:41 10° W 21:29:53 25° SW 21:32:19 15° S
Cosmos 2084 Rocket 3.4 21:29:43 10° SSW 21:33:59 64° SE 21:38:06 10° NE
Cosmos 1408 2.4 21:32:50 19° SSE 21:34:42 48° E 21:37:36 10° NNE
Cosmos 773 Rocket 4.0 21:29:41 10° NNW 21:34:53 80° ENE 21:39:00 16° SSE
Cosmos 1908 Rocket 4.2 21:31:17 10° NNW 21:35:29 50° W 21:39:38 10° SSW
BREEZE-M DEB (TANK) 4.2 21:34:08 10° W 21:38:45 89° N 21:59:07 10° E
Cosmos 2242 Rocket 4.0 21:35:53 16° SSE 21:39:22 50° E 21:43:47 10° NNE
Cosmos 1782 Rocket 3.5 21:35:18 10° N 21:39:39 85° W 21:43:07 16° S
BREEZE-M DEB (TANK) 3.8 21:39:04 10° WSW 21:40:54 20° SSW 21:41:57 17° S
Cosmos 1300 Rocket 3.5 21:38:57 10° N 21:43:18 87° E 21:46:34 17° S
Cosmos 1709 Rocket 4.3 21:38:03 14° SSE 21:43:24 55° E 21:49:32 10° NNE
SL-16 R/B 3.4 21:39:41 10° NNW 21:44:55 35° NE 21:50:00 10° ESE
Cosmos 2237 Rocket 2.2 21:40:16 10° NNW 21:45:58 89° WSW 21:50:16 18° SSE
NOSS 3-2 (A) 4.4 21:48:36 18° SE 21:50:43 22° ESE 21:55:07 10° ENE
Cosmos 2227 Rocket 2.8 21:47:45 16° SSE 21:51:43 38° ESE 21:56:55 10° NE
SJ 16-02 4.3 21:55:04 10° W 21:57:46 16° NW 22:00:29 10° NNW
H-2A R/B 3.9 21:56:06 15° ESE 21:58:50 28° ENE 22:02:24 10° N
Cosmos 1455 4.2 21:56:23 10° NW 21:59:02 20° W 22:01:40 10° SW
Cosmos 1980 3.9 21:55:00 10° NNW 22:00:38 68° WSW 22:04:42 19° SSE
EXPRESS MD2 2.2 21:59:05 10° W 22:01:22 44° SSW 22:01:35 42° S
GP-B 3.2 21:59:03 10° N 22:03:28 78° W 22:06:48 17° S
Meteor 2-5 Rocket 4.0 21:59:20 18° S 22:03:43 59° E 22:09:22 10° NNE
Landsat 5 3.8 21:59:49 10° N 22:03:57 67° WNW 22:08:06 11° SSW
Cosmos 1378 Rocket 4.5 22:02:31 21° SE 22:04:41 33° E 22:08:40 10° NNE
Cosmos 1777 Rocket 4.0 22:01:00 13° SSW 22:05:47 71° ESE 22:11:03 10° NNE
ARIANE 5 R/B 2.8 22:03:45 22° SE 22:06:26 59° ENE 22:10:45 10° N
SeaSat 1 3.3 22:04:02 16° S 22:07:32 39° WSW 22:12:10 10° NW
Cosmos 1825 3.5 22:06:41 18° ESE 22:07:36 21° E 22:10:13 10° NE
COSMOS 2455 3.4 22:01:58 10° SW 22:07:56 63° NW 22:13:57 10° NNE
Cosmos 1174 4.4 22:04:22 10° NW 22:08:58 51° WSW 22:11:05 24° S
Cosmos 2297 Rocket 2.2 22:04:48 10° SSW 22:10:28 88° WNW 22:16:10 10° NNE
Cosmos 1703 3.0 22:10:39 23° S 22:12:50 84° E 22:16:32 10° N
Cosmos 1503 Rocket 4.1 22:12:09 10° SSW 22:17:28 81° WNW 22:22:46 10° NNE
SL-23 DEB 4.4 22:22:20 10° SW 22:26:19 64° SSE 22:33:08 10° ENE
Cosmos 1461 3.9 22:26:32 23° SE 22:26:52 24° ESE 22:30:00 10° ENE
Cosmos 2219 3.8 22:23:58 23° SSE 22:26:52 40° ESE 22:32:03 10° NE
CENTAUR R/B 2.5 22:22:27 12° SSW 22:27:41 63° ESE 22:34:37 10° NE
Cosmos 371 Rocket 4.3 22:23:09 10° SW 22:27:47 46° WNW 22:32:28 10° NNE
Cosmos 1818 4.1 22:23:05 10° NW 22:28:31 56° NE 22:32:53 16° ESE
Cosmos 2263 Rocket 3.1 22:27:07 22° SE 22:29:26 30° ESE 22:34:13 10° NE
Cosmos 2151 Rocket 3.6 22:27:10 10° N 22:31:34 72° E 22:33:47 28° SSE
Cosmos 1892 2.9 22:31:14 33° SE 22:32:21 46° E 22:35:46 10° NNE
Terra 4.3 22:31:26 10° WSW 22:33:32 13° W 22:35:38 10° WNW
Okean 2 Rocket 3.1 22:31:30 10° N 22:36:01 73° E 22:38:18 28° SSE
Meteor 1-24 Rocket 3.8 22:32:42 17° SSW 22:37:06 80° WNW 22:42:36 10° N
CZ-4C R/B 3.2 22:33:57 10° WSW 22:38:32 45° NW 22:44:18 10° NE
ALOS 2 3.0 22:46:36 26° SE 22:48:49 56° ENE 22:53:08 10° N
Cosmos 1898 Rocket 4.4 22:48:08 25° SE 22:50:08 33° ESE 22:54:44 10° NE
Cosmos 405 Rocket 3.5 22:46:45 10° NNW 22:50:21 42° W 22:51:59 26° SSW
USA 234 3.2 22:44:13 10° ENE 22:50:49 87° SE 22:57:22 10° WSW
Cosmos 292 Rocket 4.3 22:49:43 29° SSE 22:51:39 43° ESE 22:56:12 10° NE
H-2A R/B 3.8 22:53:08 10° NE 22:55:54 17° E 22:57:02 16° ESE
PSLV R/B 3.9 22:52:13 10° N 22:56:12 73° WNW 22:58:17 27° SSW
USA 281 3.3 22:56:14 24° SSE 23:00:23 72° WSW 23:06:59 10° NNW
BlueWalker 3 3.0 22:57:09 10° WNW 23:00:45 44° N 23:04:22 10° E
MINOTAUR 4 R/B 4.0 22:58:26 10° N 23:01:16 55° WNW 23:02:07 37° SW
Cosmos 2074 Rocket 4.0 22:58:51 25° S 23:02:36 74° E 23:08:49 10° NNE
Cosmos 2181 Rocket 4.2 22:59:25 10° NNW 23:05:30 63° W 23:09:14 24° SSW
Aureole 1 Rocket 3.3 23:05:07 34° SSE 23:06:42 56° ESE 23:11:45 10° NNE
Cosmos 990 Rocket 3.9 23:04:48 23° SSW 23:08:04 87° WNW 23:13:15 10° NNE
TIMED 4.5 23:08:04 34° S 23:09:48 66° ESE 23:14:06 10° NNE
Cosmos 2221 Rocket 3.7 23:07:37 28° SSW 23:09:53 73° W 23:14:20 10° N
Cosmos 1328 3.7 23:09:17 39° S 23:10:36 73° E 23:14:29 10° NNE
Okean 1 Rocket 3.1 23:07:49 10° NNW 23:12:12 76° W 23:14:06 34° S
Sich 1 Rocket 4.2 23:11:01 10° NNW 23:15:13 46° W 23:17:10 27° SSW
Cosmos 1295 Rocket 4.4 23:12:40 26° S 23:16:15 81° E 23:22:28 10° N
Meteor 1-21 Rocket 4.3 23:21:20 29° S 23:24:17 64° E 23:29:50 10° NNE
Cosmos 1680 Rocket 3.8 23:19:55 10° NNW 23:25:05 61° ENE 23:28:15 23° SE
Cosmos 1025 Rocket 2.9 23:23:54 36° S 23:25:36 79° E 23:29:54 10° NNE
Cosmos 372 Rocket 4.1 23:26:39 31° S 23:29:01 60° ESE 23:34:09 10° NNE
Cosmos 2237 Rocket 4.2 23:25:57 10° WNW 23:29:11 16° W 23:32:05 11° SW
SL-16 R/B 2.7 23:23:44 10° NW 23:29:11 48° WSW 23:31:50 28° SSW
Cosmos 2112 Rocket 4.4 23:26:18 10° NNW 23:31:27 59° ENE 23:34:40 22° SE
Cosmos 1975 Rocket 3.5 23:31:37 32° SSE 23:33:15 49° E 23:37:32 10° NNE
H-2A R/B 3.6 23:32:04 25° SW 23:33:40 34° W 23:37:29 10° NNW
Cosmos 1606 3.9 23:31:05 10° N 23:34:20 31° ENE 23:35:43 23° ESE
Cosmos 1943 3.4 23:29:07 10° NNW 23:34:45 70° ENE 23:38:26 22° SE
Cosmos 1603 4.5 23:29:16 10° NNW 23:34:51 48° NE 23:39:41 14° SE
Cosmos 2227 Rocket 3.3 23:30:22 10° WSW 23:35:43 42° NW 23:41:07 10° NNE
Cosmos 2082 3.6 23:36:07 25° SSW 23:39:32 89° WNW 23:45:12 10° NNE
Nadezhda 3 Rocket 4.0 23:33:46 10° NNW 23:40:00 73° W 23:43:26 28° S
Cosmos 1455 Rocket 3.0 23:35:54 10° N 23:40:23 88° W 23:42:11 36° S
NOSS 3-2 (A) 3.4 23:35:54 13° SW 23:40:40 73° NW 23:47:03 10° NE
Cosmos 1825 3.6 23:40:07 19° WSW 23:41:38 27° WNW 23:44:35 10° NNW
BREEZE-M DEB (TANK) 3.4 23:41:09 10° W 23:43:55 86° N 23:50:49 10° E
Meteor 2-1 Rocket 4.4 23:40:21 10° N 23:46:13 71° ENE 23:49:33 26° SSE
NOSS 3-2 (C) 3.2 23:49:28 27° SSW 23:52:26 72° SE 23:58:40 10° NE
Cosmos 2228 4.1 23:49:36 10° N 23:53:37 37° ENE 23:55:54 21° SE
Cosmos 2297 Rocket 4.5 23:51:03 10° W 23:55:20 21° NW 23:59:37 10° N
